User: anonymous   Login
Location: Unspecified
(0.0000°N, 0.0000°E)
Time: 20:41:37
(UTC+00:00)
Language:

FORMOSAT 3E - Orbit

View from above orbital plane
View from above orbital plane
View from above satellite
View from above satellite

Ground track
Ground track

The orbit data is extracted from the following two-line orbital elements,

1 29051U 06011E   17233.99474267 +.00000049 +00000-0 +35238-4 0  9997
2 29051 072.0061 034.7739 0069903 266.8704 092.4433 14.28603952595013
Epoch (UTC): 21 August 2017 23:52:25
Eccentricity: 0.0069903
inclination: 72.0061°
perigee height: 746 km
apogee height: 846 km
right ascension of ascending node: 34.7739°
argument of perigee: 266.8704°
revolutions per day: 14.28603952
mean anomaly at epoch: 92.4433°
orbit number at epoch: 59501

The dashed part of the orbit path shows where the satellite is in the earth's shadow,  

DLR